Time,TemperatureF,DewpointF,PressureIn,WindDirection,WindDirectionDegrees,WindSpeedMPH,WindSpeedGustMPH,Humidity,HourlyPrecipIn,Conditions,Clouds,dailyrainin,SoftwareType,DateUTC
2013-08-06 00:01:00,56.1,53.6,30.05,SE,135,0.0,0.0,91,-99.99,,,-99.99,tws,2013-08-06 04:01:00,
2013-08-06 00:02:00,56.2,53.5,30.05,SE,135,0.0,0.0,90,-99.99,,,-99.99,tws,2013-08-06 04:02:00,
2013-08-06 00:04:00,56.1,53.6,30.05,SE,135,0.0,0.0,91,-99.99,,,-99.99,tws,2013-08-06 04:04:00,
2013-08-06 00:08:00,55.9,53.3,30.05,SE,135,0.0,0.0,90,-99.99,,,-99.99,tws,2013-08-06 04:08:00,
2013-08-06 00:13:00,55.2,52.7,30.05,SE,135,0.0,0.0,91,-99.99,,,-99.99,tws,2013-08-06 04:13:00,
2013-08-06 00:18:00,54.4,52.5,30.05,ENE,67,0.0,0.0,93,-99.99,,,-99.99,tws,2013-08-06 04:18:00,
2013-08-06 00:23:00,54.0,52.3,30.05,NNE,22,0.5,0.5,94,-99.99,,,-99.99,tws,2013-08-06 04:23:00,
2013-08-06 00:28:00,53.7,52.1,30.05,North,0,0.0,0.0,94,-99.99,,,-99.99,tws,2013-08-06 04:28:00,
2013-08-06 00:33:00,53.6,52.0,30.05,NNW,337,0.0,0.0,94,-99.99,,,-99.99,tws,2013-08-06 04:33:00,
2013-08-06 00:38:00,54.6,52.7,30.05,ENE,67,0.0,0.0,93,-99.99,,,-99.99,tws,2013-08-06 04:38:00,
2013-08-06 00:43:00,54.4,52.7,30.05,NE,45,0.0,0.0,93,-99.99,,,-99.99,tws,2013-08-06 04:43:00,
2013-08-06 00:48:00,53.4,51.9,30.05,NNE,22,0.0,0.0,94,-99.99,,,-99.99,tws,2013-08-06 04:48:00,
2013-08-06 00:53:00,54.1,52.3,30.05,ENE,67,0.0,0.0,93,-99.99,,,-99.99,tws,2013-08-06 04:53:00,
2013-08-06 00:58:00,53.7,52.1,30.06,East,90,0.0,0.0,94,-99.99,,,-99.99,tws,2013-08-06 04:58:00,
2013-08-06 01:03:00,54.1,52.3,30.06,SE,135,0.0,0.0,93,-99.99,,,-99.99,tws,2013-08-06 05:03:00,
2013-08-06 01:08:00,54.0,52.2,30.06,SE,135,2.9,2.9,93,-99.99,,,-99.99,tws,2013-08-06 05:08:00,
2013-08-06 01:13:00,53.3,51.5,30.06,ENE,67,0.6,0.6,93,-99.99,,,-99.99,tws,2013-08-06 05:13:00,
2013-08-06 01:18:00,53.0,51.3,30.06,East,90,4.5,4.5,94,-99.99,,,-99.99,tws,2013-08-06 05:18:00,
2013-08-06 01:23:00,53.2,51.6,30.06,East,90,3.2,3.2,94,-99.99,,,-99.99,tws,2013-08-06 05:23:00,
2013-08-06 01:28:00,53.3,51.5,30.06,SSE,157,0.0,0.0,93,-99.99,,,-99.99,tws,2013-08-06 05:28:00,
2013-08-06 01:33:00,53.4,51.7,30.06,SE,135,0.0,0.0,94,-99.99,,,-99.99,tws,2013-08-06 05:33:00,
2013-08-06 01:38:00,53.3,51.7,30.06,ESE,112,0.0,0.0,94,-99.99,,,-99.99,tws,2013-08-06 05:38:00,
2013-08-06 01:43:00,53.4,51.6,30.06,ESE,112,0.0,0.0,93,-99.99,,,-99.99,tws,2013-08-06 05:43:00,
2013-08-06 01:48:00,53.5,51.9,30.06,ESE,112,0.0,0.0,94,-99.99,,,-99.99,tws,2013-08-06 05:48:00,
2013-08-06 01:53:00,53.2,51.6,30.06,ESE,112,0.0,0.0,94,-99.99,,,-99.99,tws,2013-08-06 05:53:00,
2013-08-06 01:58:00,53.1,51.5,30.05,ESE,112,0.0,0.0,94,-99.99,,,-99.99,tws,2013-08-06 05:58:00,
2013-08-06 02:03:00,53.1,51.5,30.06,SE,135,0.0,0.0,94,-99.99,,,-99.99,tws,2013-08-06 06:03:00,
2013-08-06 02:08:00,53.2,51.6,30.06,SE,135,0.0,0.0,94,-99.99,,,-99.99,tws,2013-08-06 06:08:00,
2013-08-06 02:13:00,53.0,51.4,30.06,SE,135,0.0,0.0,94,-99.99,,,-99.99,tws,2013-08-06 06:13:00,
2013-08-06 02:18:00,53.2,51.5,30.06,SE,135,0.0,0.0,93,-99.99,,,-99.99,tws,2013-08-06 06:18:00,
2013-08-06 02:23:00,53.0,51.4,30.06,SE,135,0.0,0.0,94,-99.99,,,-99.99,tws,2013-08-06 06:23:00,
2013-08-06 02:28:00,53.0,51.4,30.06,SE,135,0.0,0.0,94,-99.99,,,-99.99,tws,2013-08-06 06:28:00,
2013-08-06 02:33:00,52.3,50.9,30.06,SE,135,0.0,0.0,94,-99.99,,,-99.99,tws,2013-08-06 06:33:00,
2013-08-06 02:38:00,52.0,50.5,30.06,East,90,0.0,0.0,94,-99.99,,,-99.99,tws,2013-08-06 06:38:00,
2013-08-06 02:43:00,52.3,50.9,30.06,ESE,112,0.0,0.0,94,-99.99,,,-99.99,tws,2013-08-06 06:43:00,
2013-08-06 02:48:00,52.5,51.1,30.06,ESE,112,0.0,0.0,94,-99.99,,,-99.99,tws,2013-08-06 06:48:00,
2013-08-06 02:53:00,51.9,50.5,30.07,ESE,112,0.0,0.0,94,-99.99,,,-99.99,tws,2013-08-06 06:53:00,
2013-08-06 02:58:00,51.0,49.9,30.06,ESE,112,0.0,0.0,95,-99.99,,,-99.99,tws,2013-08-06 06:58:00,
2013-08-06 03:03:00,51.2,50.1,30.07,ESE,112,0.0,0.0,96,-99.99,,,-99.99,tws,2013-08-06 07:03:00,
2013-08-06 03:08:00,50.8,49.2,30.07,ESE,112,0.0,0.0,94,-99.99,,,-99.99,tws,2013-08-06 07:08:00,
2013-08-06 03:13:00,51.4,50.2,30.07,ESE,112,0.0,0.0,95,-99.99,,,-99.99,tws,2013-08-06 07:13:00,
2013-08-06 03:18:00,50.9,49.7,30.07,East,90,0.0,0.0,95,-99.99,,,-99.99,tws,2013-08-06 07:18:00,
2013-08-06 03:23:00,51.0,49.9,30.07,East,90,0.0,0.0,95,-99.99,,,-99.99,tws,2013-08-06 07:23:00,
2013-08-06 03:28:00,51.0,50.0,30.07,East,90,0.0,0.0,96,-99.99,,,-99.99,tws,2013-08-06 07:28:00,
2013-08-06 03:33:00,51.2,50.0,30.07,East,90,0.0,0.0,95,-99.99,,,-99.99,tws,2013-08-06 07:33:00,
2013-08-06 03:38:00,50.1,49.2,30.07,NE,45,0.2,0.2,96,-99.99,,,-99.99,tws,2013-08-06 07:38:00,
2013-08-06 03:43:00,50.8,49.9,30.07,ESE,112,0.0,0.0,96,-99.99,,,-99.99,tws,2013-08-06 07:43:00,
2013-08-06 03:48:00,51.0,49.8,30.07,ESE,112,0.0,0.0,95,-99.99,,,-99.99,tws,2013-08-06 07:48:00,
2013-08-06 03:53:00,50.8,49.4,30.07,ESE,112,0.0,0.0,95,-99.99,,,-99.99,tws,2013-08-06 07:53:00,
2013-08-06 03:59:00,50.8,49.8,30.07,ESE,112,0.0,0.0,96,-99.99,,,-99.99,tws,2013-08-06 07:59:00,
2013-08-06 04:04:00,50.5,49.1,30.07,ESE,112,0.0,0.0,94,-99.99,,,-99.99,tws,2013-08-06 08:04:00,
2013-08-06 04:09:00,50.4,49.2,30.07,ESE,112,0.0,0.0,95,-99.99,,,-99.99,tws,2013-08-06 08:09:00,
2013-08-06 04:14:00,50.7,49.8,30.07,ESE,112,0.0,0.0,96,-99.99,,,-99.99,tws,2013-08-06 08:14:00,
2013-08-06 04:19:00,50.5,49.3,30.07,ESE,112,0.0,0.0,95,-99.99,,,-99.99,tws,2013-08-06 08:19:00,
2013-08-06 04:24:00,50.6,49.5,30.07,ESE,112,0.0,0.0,96,-99.99,,,-99.99,tws,2013-08-06 08:24:00,
2013-08-06 04:29:00,50.5,49.4,30.07,ESE,112,0.0,0.0,96,-99.99,,,-99.99,tws,2013-08-06 08:29:00,
2013-08-06 04:34:00,49.8,48.8,30.07,ESE,112,0.0,0.0,96,-99.99,,,-99.99,tws,2013-08-06 08:34:00,
2013-08-06 04:39:00,50.4,49.5,30.07,ESE,112,0.0,0.0,96,-99.99,,,-99.99,tws,2013-08-06 08:39:00,
2013-08-06 04:44:00,50.5,49.4,30.07,ESE,112,0.0,0.0,96,-99.99,,,-99.99,tws,2013-08-06 08:44:00,
2013-08-06 04:49:00,50.0,48.9,30.07,ESE,112,0.0,0.0,95,-99.99,,,-99.99,tws,2013-08-06 08:49:00,
2013-08-06 04:54:00,50.2,49.1,30.08,ESE,112,0.0,0.0,95,-99.99,,,-99.99,tws,2013-08-06 08:54:00,
2013-08-06 04:59:00,49.9,48.9,30.08,SE,135,0.0,0.0,96,-99.99,,,-99.99,tws,2013-08-06 08:59:00,
2013-08-06 05:04:00,50.0,49.0,30.08,SE,135,0.0,0.0,96,-99.99,,,-99.99,tws,2013-08-06 09:04:00,
2013-08-06 05:09:00,50.0,49.0,30.08,SE,135,0.0,0.0,96,-99.99,,,-99.99,tws,2013-08-06 09:09:00,
2013-08-06 05:14:00,50.1,49.0,30.09,SE,135,0.0,0.0,95,-99.99,,,-99.99,tws,2013-08-06 09:14:00,
2013-08-06 05:19:00,50.0,49.0,30.08,SE,135,0.0,0.0,96,-99.99,,,-99.99,tws,2013-08-06 09:19:00,
2013-08-06 05:24:00,50.0,48.9,30.09,SE,135,0.0,0.0,95,-99.99,,,-99.99,tws,2013-08-06 09:24:00,
2013-08-06 05:29:00,49.6,48.6,30.09,ESE,112,0.0,0.0,96,-99.99,,,-99.99,tws,2013-08-06 09:29:00,
2013-08-06 05:34:00,49.9,48.8,30.09,ESE,112,0.0,0.0,95,-99.99,,,-99.99,tws,2013-08-06 09:34:00,
2013-08-06 05:39:00,49.7,48.3,30.09,SE,135,0.0,0.0,94,-99.99,,,-99.99,tws,2013-08-06 09:39:00,
2013-08-06 05:44:00,50.0,48.9,30.09,SE,135,0.0,0.0,95,-99.99,,,-99.99,tws,2013-08-06 09:44:00,
2013-08-06 05:49:00,50.2,49.1,30.09,SE,135,0.0,0.0,95,-99.99,,,-99.99,tws,2013-08-06 09:49:00,
2013-08-06 05:54:00,50.1,49.0,30.09,SE,135,0.0,0.0,95,-99.99,,,-99.99,tws,2013-08-06 09:54:00,
2013-08-06 05:59:00,49.8,48.8,30.09,SE,135,0.0,0.0,96,-99.99,,,-99.99,tws,2013-08-06 09:59:00,
2013-08-06 06:04:00,49.3,48.5,30.09,SE,135,0.0,0.0,96,-99.99,,,-99.99,tws,2013-08-06 10:04:00,
2013-08-06 06:09:00,49.1,48.4,30.09,SE,135,0.0,0.0,97,-99.99,,,-99.99,tws,2013-08-06 10:09:00,
2013-08-06 06:14:00,49.7,48.9,30.09,SE,135,0.0,0.0,97,-99.99,,,-99.99,tws,2013-08-06 10:14:00,
2013-08-06 06:19:00,50.4,49.3,30.10,SE,135,0.0,0.0,96,-99.99,,,-99.99,tws,2013-08-06 10:19:00,
2013-08-06 06:24:00,50.6,49.6,30.10,SE,135,0.0,0.0,96,-99.99,,,-99.99,tws,2013-08-06 10:24:00,
2013-08-06 06:29:00,51.4,49.9,30.10,SE,135,0.0,0.0,94,-99.99,,,-99.99,tws,2013-08-06 10:29:00,
2013-08-06 06:34:00,50.7,49.4,30.10,SE,135,0.0,0.0,95,-99.99,,,-99.99,tws,2013-08-06 10:34:00,
2013-08-06 06:39:00,51.4,50.1,30.10,SE,135,0.0,0.0,95,-99.99,,,-99.99,tws,2013-08-06 10:39:00,
2013-08-06 06:44:00,51.4,50.0,30.10,SE,135,0.0,0.0,95,-99.99,,,-99.99,tws,2013-08-06 10:44:00,
2013-08-06 06:49:00,51.8,50.0,30.10,East,90,0.0,0.0,93,-99.99,,,-99.99,tws,2013-08-06 10:49:00,
2013-08-06 06:54:00,51.8,50.2,30.11,ESE,112,0.0,0.0,94,-99.99,,,-99.99,tws,2013-08-06 10:54:00,
2013-08-06 06:59:00,52.5,50.9,30.11,ESE,112,0.0,0.0,94,-99.99,,,-99.99,tws,2013-08-06 10:59:00,
2013-08-06 07:04:00,52.7,51.0,30.11,ESE,112,0.8,0.8,93,-99.99,,,-99.99,tws,2013-08-06 11:04:00,
2013-08-06 07:09:00,53.1,51.0,30.11,ESE,112,0.0,0.0,92,-99.99,,,-99.99,tws,2013-08-06 11:09:00,
2013-08-06 07:14:00,53.3,51.5,30.11,ESE,112,0.0,0.0,93,-99.99,,,-99.99,tws,2013-08-06 11:14:00,
2013-08-06 07:19:00,53.8,51.8,30.11,East,90,0.0,0.0,92,-99.99,,,-99.99,tws,2013-08-06 11:19:00,
2013-08-06 07:24:00,54.3,52.4,30.11,ESE,112,0.0,0.0,93,-99.99,,,-99.99,tws,2013-08-06 11:24:00,
2013-08-06 07:29:00,53.7,52.2,30.11,North,360,0.0,0.0,94,-99.99,,,-99.99,tws,2013-08-06 11:29:00,
2013-08-06 07:34:00,54.0,52.4,30.11,NNW,337,0.0,0.0,94,-99.99,,,-99.99,tws,2013-08-06 11:34:00,
2013-08-06 07:39:00,55.2,52.9,30.11,ENE,67,0.0,0.0,91,-99.99,,,-99.99,tws,2013-08-06 11:39:00,
2013-08-06 07:44:00,55.2,52.7,30.11,NNE,22,0.0,0.0,91,-99.99,,,-99.99,tws,2013-08-06 11:44:00,
2013-08-06 07:49:00,54.4,52.6,30.11,WNW,292,0.0,0.0,93,-99.99,,,-99.99,tws,2013-08-06 11:49:00,
2013-08-06 07:54:00,56.9,53.9,30.11,West,270,0.0,0.0,89,-99.99,,,-99.99,tws,2013-08-06 11:54:00,
2013-08-06 07:59:00,57.8,54.8,30.12,NW,315,0.0,0.0,89,-99.99,,,-99.99,tws,2013-08-06 11:59:00,
2013-08-06 08:04:00,57.9,54.9,30.12,SSW,202,0.0,0.0,89,-99.99,,,-99.99,tws,2013-08-06 12:04:00,
2013-08-06 08:09:00,57.6,54.5,30.11,SSE,157,0.0,0.0,89,-99.99,,,-99.99,tws,2013-08-06 12:09:00,
2013-08-06 08:14:00,58.5,54.7,30.11,South,180,0.0,0.0,87,-99.99,,,-99.99,tws,2013-08-06 12:14:00,
2013-08-06 08:19:00,59.2,56.1,30.11,SSW,202,0.0,0.0,89,-99.99,,,-99.99,tws,2013-08-06 12:19:00,
2013-08-06 08:24:00,59.2,55.1,30.11,SSE,157,0.0,0.0,86,-99.99,,,-99.99,tws,2013-08-06 12:24:00,
2013-08-06 08:29:00,59.5,55.4,30.12,North,0,0.1,0.1,86,-99.99,,,-99.99,tws,2013-08-06 12:29:00,
2013-08-06 08:34:00,58.9,54.6,30.12,NE,45,0.0,0.0,85,-99.99,,,-99.99,tws,2013-08-06 12:34:00,
2013-08-06 08:39:00,59.5,54.7,30.12,ENE,67,0.7,0.7,83,-99.99,,,-99.99,tws,2013-08-06 12:39:00,
2013-08-06 08:44:00,60.2,55.8,30.12,NNE,22,0.0,0.0,85,-99.99,,,-99.99,tws,2013-08-06 12:44:00,
2013-08-06 08:49:00,61.5,56.2,30.12,NNW,337,0.9,0.9,82,-99.99,,,-99.99,tws,2013-08-06 12:49:00,
2013-08-06 08:54:00,62.3,56.9,30.12,NE,45,0.8,0.8,82,-99.99,,,-99.99,tws,2013-08-06 12:54:00,
2013-08-06 08:59:00,61.0,55.2,30.11,NNW,337,0.7,0.7,81,-99.99,,,-99.99,tws,2013-08-06 12:59:00,
2013-08-06 09:04:00,60.9,55.1,30.11,NW,315,0.0,0.0,80,-99.99,,,-99.99,tws,2013-08-06 13:04:00,
2013-08-06 09:09:00,61.0,55.1,30.11,WNW,292,4.4,4.4,80,-99.99,,,-99.99,tws,2013-08-06 13:09:00,
2013-08-06 09:14:00,63.3,56.1,30.11,East,90,1.2,1.2,77,-99.99,,,-99.99,tws,2013-08-06 13:14:00,
2013-08-06 09:19:00,63.7,57.1,30.11,NNE,22,3.4,3.4,78,-99.99,,,-99.99,tws,2013-08-06 13:19:00,
2013-08-06 09:24:00,65.2,57.1,30.11,North,360,1.2,1.2,74,-99.99,,,-99.99,tws,2013-08-06 13:24:00,
2013-08-06 09:29:00,63.2,56.0,30.11,NNW,337,4.0,4.0,77,-99.99,,,-99.99,tws,2013-08-06 13:29:00,
2013-08-06 09:34:00,65.6,56.9,30.11,NE,45,0.0,0.0,73,-99.99,,,-99.99,tws,2013-08-06 13:34:00,
2013-08-06 09:39:00,65.8,57.4,30.11,East,90,1.9,1.9,74,-99.99,,,-99.99,tws,2013-08-06 13:39:00,
2013-08-06 09:44:00,66.3,57.0,30.11,NNW,337,0.1,0.1,71,-99.99,,,-99.99,tws,2013-08-06 13:44:00,
2013-08-06 09:49:00,67.7,57.7,30.11,East,90,3.2,3.2,69,-99.99,,,-99.99,tws,2013-08-06 13:49:00,
2013-08-06 09:54:00,69.5,59.3,30.11,NNW,337,0.0,0.0,69,-99.99,,,-99.99,tws,2013-08-06 13:54:00,
2013-08-06 09:59:00,69.6,58.7,30.11,NE,45,0.8,0.8,67,-99.99,,,-99.99,tws,2013-08-06 13:59:00,
2013-08-06 10:04:00,70.3,59.1,30.11,SE,135,4.9,4.9,67,-99.99,,,-99.99,tws,2013-08-06 14:04:00,
2013-08-06 10:09:00,71.4,59.2,30.11,NNW,337,2.1,2.1,64,-99.99,,,-99.99,tws,2013-08-06 14:09:00,
2013-08-06 10:14:00,67.5,57.1,30.11,NE,45,0.2,0.2,69,-99.99,,,-99.99,tws,2013-08-06 14:14:00,
2013-08-06 10:19:00,71.2,59.3,30.11,WSW,247,0.0,0.0,65,-99.99,,,-99.99,tws,2013-08-06 14:19:00,
2013-08-06 10:24:00,68.8,57.9,30.11,NNW,337,0.3,0.3,67,-99.99,,,-99.99,tws,2013-08-06 14:24:00,
2013-08-06 10:29:00,70.8,59.1,30.11,East,90,0.1,0.1,66,-99.99,,,-99.99,tws,2013-08-06 14:29:00,
2013-08-06 10:34:00,72.4,58.8,30.11,SW,225,0.1,0.1,61,-99.99,,,-99.99,tws,2013-08-06 14:34:00,
2013-08-06 10:39:00,71.1,58.9,30.11,NNE,22,0.1,0.1,65,-99.99,,,-99.99,tws,2013-08-06 14:39:00,
2013-08-06 10:44:00,72.8,57.4,30.11,ENE,67,1.8,1.8,58,-99.99,,,-99.99,tws,2013-08-06 14:44:00,
2013-08-06 10:49:00,69.4,56.0,30.11,NW,315,2.7,2.7,62,-99.99,,,-99.99,tws,2013-08-06 14:49:00,
2013-08-06 10:54:00,72.9,58.4,30.11,NNE,22,0.0,0.0,60,-99.99,,,-99.99,tws,2013-08-06 14:54:00,
2013-08-06 10:59:00,74.2,60.9,30.11,ESE,112,4.3,4.3,62,-99.99,,,-99.99,tws,2013-08-06 14:59:00,
2013-08-06 11:04:00,74.0,59.1,30.10,West,270,0.5,0.5,59,-99.99,,,-99.99,tws,2013-08-06 15:04:00,
2013-08-06 11:09:00,74.1,62.4,30.10,West,270,4.1,4.1,66,-99.99,,,-99.99,tws,2013-08-06 15:09:00,
2013-08-06 11:14:00,73.7,58.6,30.11,West,270,3.1,3.1,58,-99.99,,,-99.99,tws,2013-08-06 15:14:00,
2013-08-06 11:19:00,74.4,59.3,30.10,WNW,292,0.0,0.0,58,-99.99,,,-99.99,tws,2013-08-06 15:19:00,
2013-08-06 11:24:00,71.5,57.8,30.10,West,270,4.9,4.9,61,-99.99,,,-99.99,tws,2013-08-06 15:24:00,
2013-08-06 11:29:00,72.1,58.5,30.11,WNW,292,7.8,7.8,61,-99.99,,,-99.99,tws,2013-08-06 15:29:00,
2013-08-06 11:34:00,76.6,59.5,30.11,SW,225,0.7,0.7,55,-99.99,,,-99.99,tws,2013-08-06 15:34:00,
2013-08-06 11:39:00,74.4,57.1,30.11,West,270,3.5,3.5,54,-99.99,,,-99.99,tws,2013-08-06 15:39:00,
2013-08-06 11:44:00,74.1,58.7,30.11,WNW,292,0.5,0.5,58,-99.99,,,-99.99,tws,2013-08-06 15:44:00,
2013-08-06 11:49:00,76.8,58.6,30.11,SSE,157,0.0,0.0,52,-99.99,,,-99.99,tws,2013-08-06 15:49:00,
2013-08-06 11:54:00,77.8,61.0,30.11,ESE,112,9.2,9.2,55,-99.99,,,-99.99,tws,2013-08-06 15:54:00,
2013-08-06 11:59:00,75.3,60.1,30.11,NE,45,2.9,2.9,58,-99.99,,,-99.99,tws,2013-08-06 15:59:00,
2013-08-06 12:04:00,76.4,60.1,30.11,SW,225,0.2,0.2,56,-99.99,,,-99.99,tws,2013-08-06 16:04:00,
2013-08-06 12:09:00,77.3,60.9,30.11,West,270,6.5,6.5,56,-99.99,,,-99.99,tws,2013-08-06 16:09:00,
2013-08-06 12:14:00,74.4,58.2,30.11,WSW,247,10.2,10.2,56,-99.99,,,-99.99,tws,2013-08-06 16:14:00,
2013-08-06 12:19:00,76.4,58.6,30.10,West,270,4.9,4.9,53,-99.99,,,-99.99,tws,2013-08-06 16:19:00,
2013-08-06 12:24:00,75.5,58.9,30.10,SW,225,1.4,1.4,56,-99.99,,,-99.99,tws,2013-08-06 16:24:00,
2013-08-06 12:29:00,80.2,63.1,30.11,South,180,0.1,0.1,55,-99.99,,,-99.99,tws,2013-08-06 16:29:00,
2013-08-06 12:34:00,79.1,59.5,30.11,WSW,247,5.4,5.4,50,-99.99,,,-99.99,tws,2013-08-06 16:34:00,
2013-08-06 12:39:00,78.6,60.8,30.10,West,270,8.6,8.6,53,-99.99,,,-99.99,tws,2013-08-06 16:39:00,
2013-08-06 12:44:00,80.1,61.1,30.10,WSW,247,3.9,3.9,51,-99.99,,,-99.99,tws,2013-08-06 16:44:00,
2013-08-06 12:49:00,81.3,62.1,30.11,West,270,0.0,0.0,51,-99.99,,,-99.99,tws,2013-08-06 16:49:00,
2013-08-06 12:54:00,78.5,59.3,30.11,SSW,202,5.7,5.7,51,-99.99,,,-99.99,tws,2013-08-06 16:54:00,
2013-08-06 12:59:00,80.4,61.0,30.11,SW,225,3.0,3.0,51,-99.99,,,-99.99,tws,2013-08-06 16:59:00,
2013-08-06 13:04:00,74.2,58.1,30.11,WNW,292,2.3,2.3,56,-99.99,,,-99.99,tws,2013-08-06 17:04:00,
2013-08-06 13:05:00,76.7,60.4,30.11,ESE,112,0.1,0.1,56,-99.99,,,-99.99,tws,2013-08-06 17:05:00,
2013-08-06 13:10:00,82.3,62.7,30.11,SSW,202,0.1,0.1,50,-99.99,,,-99.99,tws,2013-08-06 17:10:00,
2013-08-06 13:15:00,77.9,61.5,30.10,SSW,202,4.5,4.5,56,-99.99,,,-99.99,tws,2013-08-06 17:15:00,
2013-08-06 13:20:00,74.7,58.2,30.09,North,360,2.0,2.0,55,-99.99,,,-99.99,tws,2013-08-06 17:20:00,
2013-08-06 13:25:00,79.6,60.8,30.09,NNE,22,0.0,0.0,52,-99.99,,,-99.99,tws,2013-08-06 17:25:00,
2013-08-06 13:28:00,82.0,63.2,30.09,NE,45,1.8,1.8,52,-99.99,,,-99.99,tws,2013-08-06 17:28:00,
2013-08-06 13:33:00,80.2,61.1,30.09,WSW,247,11.0,11.0,51,-99.99,,,-99.99,tws,2013-08-06 17:33:00,
2013-08-06 13:38:00,76.9,57.0,30.09,SW,225,11.5,11.5,49,-99.99,,,-99.99,tws,2013-08-06 17:38:00,
2013-08-06 13:43:00,75.0,57.0,30.09,WNW,292,7.7,7.7,53,-99.99,,,-99.99,tws,2013-08-06 17:43:00,
2013-08-06 13:48:00,78.6,58.6,30.09,SW,225,4.3,4.3,49,-99.99,,,-99.99,tws,2013-08-06 17:48:00,
2013-08-06 13:53:00,81.1,62.8,30.09,South,180,0.9,0.9,53,-99.99,,,-99.99,tws,2013-08-06 17:53:00,
2013-08-06 13:58:00,76.0,59.9,30.09,WSW,247,4.7,4.7,56,-99.99,,,-99.99,tws,2013-08-06 17:58:00,
2013-08-06 14:03:00,81.8,61.7,30.09,South,180,0.6,0.6,50,-99.99,,,-99.99,tws,2013-08-06 18:03:00,
2013-08-06 14:08:00,81.0,60.5,30.09,SE,135,1.1,1.1,49,-99.99,,,-99.99,tws,2013-08-06 18:08:00,
2013-08-06 14:13:00,80.6,62.0,30.09,SSE,157,8.3,8.3,52,-99.99,,,-99.99,tws,2013-08-06 18:13:00,
2013-08-06 14:18:00,76.8,58.5,30.09,South,180,4.1,4.1,52,-99.99,,,-99.99,tws,2013-08-06 18:18:00,
2013-08-06 14:23:00,80.9,60.3,30.09,SW,225,9.2,9.2,49,-99.99,,,-99.99,tws,2013-08-06 18:23:00,
2013-08-06 14:28:00,83.1,59.6,30.09,SW,225,3.9,3.9,44,-99.99,,,-99.99,tws,2013-08-06 18:28:00,
2013-08-06 14:33:00,84.2,60.1,30.09,West,270,5.4,5.4,43,-99.99,,,-99.99,tws,2013-08-06 18:33:00,
2013-08-06 14:38:00,82.3,58.0,30.08,SW,225,6.6,6.6,43,-99.99,,,-99.99,tws,2013-08-06 18:38:00,
2013-08-06 14:43:00,77.6,56.6,30.08,NW,315,9.3,9.3,47,-99.99,,,-99.99,tws,2013-08-06 18:43:00,
2013-08-06 14:48:00,82.9,59.1,30.08,SSW,202,2.1,2.1,43,-99.99,,,-99.99,tws,2013-08-06 18:48:00,
2013-08-06 14:53:00,79.1,57.2,30.08,WSW,247,14.2,14.2,46,-99.99,,,-99.99,tws,2013-08-06 18:53:00,
2013-08-06 14:58:00,79.3,55.8,30.08,West,270,10.2,10.2,43,-99.99,,,-99.99,tws,2013-08-06 18:58:00,
2013-08-06 15:03:00,83.0,56.9,30.08,WSW,247,4.5,4.5,40,-99.99,,,-99.99,tws,2013-08-06 19:03:00,
2013-08-06 15:08:00,81.4,55.2,30.08,SW,225,14.5,14.5,40,-99.99,,,-99.99,tws,2013-08-06 19:08:00,
2013-08-06 15:13:00,84.5,59.3,30.08,South,180,5.5,5.5,42,-99.99,,,-99.99,tws,2013-08-06 19:13:00,
2013-08-06 15:18:00,83.8,57.8,30.08,SW,225,4.0,4.0,40,-99.99,,,-99.99,tws,2013-08-06 19:18:00,
2013-08-06 15:23:00,86.4,60.8,30.08,SSE,157,5.8,5.8,41,-99.99,,,-99.99,tws,2013-08-06 19:23:00,
2013-08-06 15:28:00,82.8,57.8,30.08,West,270,9.8,9.8,42,-99.99,,,-99.99,tws,2013-08-06 19:28:00,
2013-08-06 15:33:00,86.3,60.5,30.08,SSE,157,8.6,8.6,41,-99.99,,,-99.99,tws,2013-08-06 19:33:00,
2013-08-06 15:38:00,87.9,61.8,30.08,SE,135,5.2,5.2,41,-99.99,,,-99.99,tws,2013-08-06 19:38:00,
2013-08-06 15:43:00,86.9,62.3,30.08,South,180,0.3,0.3,43,-99.99,,,-99.99,tws,2013-08-06 19:43:00,
2013-08-06 15:48:00,89.1,62.5,30.08,South,180,8.6,8.6,40,-99.99,,,-99.99,tws,2013-08-06 19:48:00,
2013-08-06 15:53:00,86.3,62.0,30.08,West,270,3.7,3.7,43,-99.99,,,-99.99,tws,2013-08-06 19:53:00,
2013-08-06 15:58:00,85.2,60.3,30.08,SSE,157,6.0,6.0,42,-99.99,,,-99.99,tws,2013-08-06 19:58:00,
2013-08-06 16:04:00,89.7,62.7,30.07,SSE,157,10.2,10.2,39,-99.99,,,-99.99,tws,2013-08-06 20:04:00,
2013-08-06 16:09:00,90.4,63.5,30.07,South,180,4.0,4.0,40,-99.99,,,-99.99,tws,2013-08-06 20:09:00,
2013-08-06 16:14:00,86.1,60.3,30.08,SSE,157,5.5,5.5,41,-99.99,,,-99.99,tws,2013-08-06 20:14:00,
2013-08-06 16:19:00,89.1,63.8,30.08,SE,135,9.1,9.1,42,-99.99,,,-99.99,tws,2013-08-06 20:19:00,
2013-08-06 16:24:00,83.9,60.1,30.08,South,180,8.2,8.2,44,-99.99,,,-99.99,tws,2013-08-06 20:24:00,
2013-08-06 16:29:00,83.3,60.5,30.08,East,90,0.8,0.8,45,-99.99,,,-99.99,tws,2013-08-06 20:29:00,
2013-08-06 16:34:00,89.6,64.3,30.08,SSE,157,6.9,6.9,42,-99.99,,,-99.99,tws,2013-08-06 20:34:00,
2013-08-06 16:39:00,87.3,61.9,30.08,South,180,8.3,8.3,42,-99.99,,,-99.99,tws,2013-08-06 20:39:00,
2013-08-06 16:44:00,83.3,58.2,30.08,West,270,10.5,10.5,41,-99.99,,,-99.99,tws,2013-08-06 20:44:00,
2013-08-06 16:49:00,89.0,61.6,30.08,WSW,247,4.2,4.2,39,-99.99,,,-99.99,tws,2013-08-06 20:49:00,
2013-08-06 16:54:00,89.9,63.2,30.08,SE,135,10.1,10.1,40,-99.99,,,-99.99,tws,2013-08-06 20:54:00,
2013-08-06 16:59:00,86.6,60.3,30.07,WSW,247,6.9,6.9,40,-99.99,,,-99.99,tws,2013-08-06 20:59:00,
2013-08-06 17:04:00,89.3,64.0,30.08,ESE,112,3.1,3.1,42,-99.99,,,-99.99,tws,2013-08-06 21:04:00,
2013-08-06 17:09:00,91.7,66.0,30.08,South,180,1.7,1.7,42,-99.99,,,-99.99,tws,2013-08-06 21:09:00,
2013-08-06 17:14:00,84.2,59.8,30.08,SW,225,6.6,6.6,43,-99.99,,,-99.99,tws,2013-08-06 21:14:00,
2013-08-06 17:19:00,84.0,59.1,30.07,South,180,2.1,2.1,42,-99.99,,,-99.99,tws,2013-08-06 21:19:00,
2013-08-06 17:24:00,83.8,59.0,30.07,SW,225,9.6,9.6,42,-99.99,,,-99.99,tws,2013-08-06 21:24:00,
2013-08-06 17:29:00,85.0,60.1,30.07,WSW,247,6.5,6.5,42,-99.99,,,-99.99,tws,2013-08-06 21:29:00,
2013-08-06 17:34:00,85.9,62.3,30.07,West,270,3.4,3.4,44,-99.99,,,-99.99,tws,2013-08-06 21:34:00,
2013-08-06 17:39:00,89.0,63.2,30.07,South,180,9.0,9.0,41,-99.99,,,-99.99,tws,2013-08-06 21:39:00,
2013-08-06 17:44:00,90.4,63.3,30.07,South,180,6.7,6.7,39,-99.99,,,-99.99,tws,2013-08-06 21:44:00,
2013-08-06 17:49:00,87.8,61.3,30.07,SSW,202,4.9,4.9,40,-99.99,,,-99.99,tws,2013-08-06 21:49:00,
2013-08-06 17:54:00,90.3,63.0,30.07,South,180,0.0,0.0,39,-99.99,,,-99.99,tws,2013-08-06 21:54:00,
2013-08-06 17:59:00,87.8,59.9,30.07,WSW,247,1.4,1.4,38,-99.99,,,-99.99,tws,2013-08-06 21:59:00,
2013-08-06 18:04:00,83.8,58.9,30.07,SSW,202,7.9,7.9,42,-99.99,,,-99.99,tws,2013-08-06 22:04:00,
2013-08-06 18:09:00,85.0,59.9,30.07,SSW,202,1.0,1.0,42,-99.99,,,-99.99,tws,2013-08-06 22:09:00,
2013-08-06 18:14:00,84.8,59.9,30.08,SW,225,7.7,7.7,42,-99.99,,,-99.99,tws,2013-08-06 22:14:00,
2013-08-06 18:19:00,85.1,60.9,30.07,South,180,1.9,1.9,43,-99.99,,,-99.99,tws,2013-08-06 22:19:00,
2013-08-06 18:24:00,87.7,63.7,30.07,SSE,157,0.0,0.0,44,-99.99,,,-99.99,tws,2013-08-06 22:24:00,
2013-08-06 18:29:00,89.9,64.1,30.07,South,180,4.0,4.0,41,-99.99,,,-99.99,tws,2013-08-06 22:29:00,
2013-08-06 18:34:00,91.0,65.0,30.07,SSW,202,0.6,0.6,41,-99.99,,,-99.99,tws,2013-08-06 22:34:00,
2013-08-06 18:39:00,88.8,63.9,30.08,South,180,0.0,0.0,42,-99.99,,,-99.99,tws,2013-08-06 22:39:00,
2013-08-06 18:44:00,83.2,62.2,30.08,South,180,0.1,0.1,48,-99.99,,,-99.99,tws,2013-08-06 22:44:00,
2013-08-06 18:49:00,80.6,61.4,30.08,SSE,157,1.9,1.9,51,-99.99,,,-99.99,tws,2013-08-06 22:49:00,
2013-08-06 18:54:00,80.2,61.2,30.08,South,180,0.0,0.0,51,-99.99,,,-99.99,tws,2013-08-06 22:54:00,
2013-08-06 18:59:00,79.7,61.7,30.08,South,180,0.2,0.2,53,-99.99,,,-99.99,tws,2013-08-06 22:59:00,
2013-08-06 19:04:00,78.6,61.7,30.08,South,180,0.0,0.0,55,-99.99,,,-99.99,tws,2013-08-06 23:04:00,
2013-08-06 19:09:00,77.9,61.0,30.08,SSE,157,0.0,0.0,55,-99.99,,,-99.99,tws,2013-08-06 23:09:00,
2013-08-06 19:14:00,77.6,60.7,30.07,SSE,157,0.0,0.0,55,-99.99,,,-99.99,tws,2013-08-06 23:14:00,
2013-08-06 19:19:00,76.6,61.5,30.08,SSE,157,0.0,0.0,59,-99.99,,,-99.99,tws,2013-08-06 23:19:00,
2013-08-06 19:24:00,74.1,61.9,30.08,SSE,157,2.9,2.9,65,-99.99,,,-99.99,tws,2013-08-06 23:24:00,
2013-08-06 19:29:00,72.6,60.2,30.09,South,180,4.2,4.2,64,-99.99,,,-99.99,tws,2013-08-06 23:29:00,
2013-08-06 19:34:00,72.8,60.9,30.09,SSE,157,4.1,4.1,65,-99.99,,,-99.99,tws,2013-08-06 23:34:00,
2013-08-06 19:39:00,72.5,61.0,30.09,SSE,157,5.0,5.0,66,-99.99,,,-99.99,tws,2013-08-06 23:39:00,
2013-08-06 19:44:00,72.2,60.5,30.09,SSE,157,5.2,5.2,66,-99.99,,,-99.99,tws,2013-08-06 23:44:00,
2013-08-06 19:49:00,72.2,60.5,30.09,SSE,157,4.7,4.7,66,-99.99,,,-99.99,tws,2013-08-06 23:49:00,
2013-08-06 19:54:00,72.1,60.7,30.09,South,180,4.2,4.2,67,-99.99,,,-99.99,tws,2013-08-06 23:54:00,
2013-08-06 19:59:00,71.3,60.4,30.09,SE,135,5.4,5.4,68,-99.99,,,-99.99,tws,2013-08-06 23:59:00,
2013-08-06 20:04:00,71.2,60.6,30.09,SSE,157,4.6,4.6,68,-99.99,,,-99.99,tws,2013-08-07 00:04:00,
2013-08-06 20:09:00,71.0,60.4,30.09,SE,135,6.1,6.1,68,-99.99,,,-99.99,tws,2013-08-07 00:09:00,
2013-08-06 20:14:00,70.7,60.4,30.09,SE,135,6.5,6.5,69,-99.99,,,-99.99,tws,2013-08-07 00:14:00,
2013-08-06 20:19:00,70.6,60.3,30.09,SE,135,7.0,7.0,69,-99.99,,,-99.99,tws,2013-08-07 00:19:00,
2013-08-06 20:24:00,70.8,60.6,30.09,SSE,157,6.8,6.8,69,-99.99,,,-99.99,tws,2013-08-07 00:24:00,
2013-08-06 20:29:00,70.5,60.3,30.09,SSE,157,7.5,7.5,69,-99.99,,,-99.99,tws,2013-08-07 00:29:00,
2013-08-06 20:34:00,70.1,60.1,30.09,South,180,3.9,3.9,70,-99.99,,,-99.99,tws,2013-08-07 00:34:00,
2013-08-06 20:39:00,70.2,59.9,30.09,SSE,157,7.7,7.7,69,-99.99,,,-99.99,tws,2013-08-07 00:39:00,
2013-08-06 20:44:00,69.7,60.0,30.09,ESE,112,5.4,5.4,70,-99.99,,,-99.99,tws,2013-08-07 00:44:00,
2013-08-06 20:49:00,69.6,59.9,30.09,SSE,157,8.5,8.5,70,-99.99,,,-99.99,tws,2013-08-07 00:49:00,
2013-08-06 20:54:00,69.7,60.0,30.09,SE,135,6.7,6.7,70,-99.99,,,-99.99,tws,2013-08-07 00:54:00,
2013-08-06 20:59:00,69.9,60.7,30.09,SSE,157,3.9,3.9,72,-99.99,,,-99.99,tws,2013-08-07 00:59:00,
2013-08-06 21:04:00,69.7,60.2,30.09,SSE,157,6.9,6.9,71,-99.99,,,-99.99,tws,2013-08-07 01:04:00,
2013-08-06 21:09:00,69.0,60.1,30.09,SE,135,3.2,3.2,72,-99.99,,,-99.99,tws,2013-08-07 01:09:00,
2013-08-06 21:15:00,69.3,60.1,30.09,SE,135,5.3,5.3,72,-99.99,,,-99.99,tws,2013-08-07 01:15:00,
2013-08-06 21:20:00,69.0,60.1,30.09,SSE,157,3.5,3.5,72,-99.99,,,-99.99,tws,2013-08-07 01:20:00,
2013-08-06 21:25:00,68.9,60.0,30.09,South,180,4.9,4.9,73,-99.99,,,-99.99,tws,2013-08-07 01:25:00,
2013-08-06 21:30:00,68.8,59.9,30.09,South,180,5.3,5.3,72,-99.99,,,-99.99,tws,2013-08-07 01:30:00,
2013-08-06 21:35:00,68.6,59.8,30.10,SSE,157,6.4,6.4,73,-99.99,,,-99.99,tws,2013-08-07 01:35:00,
2013-08-06 21:40:00,68.1,59.7,30.09,SE,135,5.2,5.2,74,-99.99,,,-99.99,tws,2013-08-07 01:40:00,
2013-08-06 21:45:00,68.1,59.8,30.10,SSE,157,5.0,5.0,74,-99.99,,,-99.99,tws,2013-08-07 01:45:00,
2013-08-06 21:50:00,68.1,59.9,30.09,SSE,157,4.7,4.7,74,-99.99,,,-99.99,tws,2013-08-07 01:50:00,
2013-08-06 21:56:00,67.4,59.6,30.09,SSE,157,9.3,9.3,76,-99.99,,,-99.99,tws,2013-08-07 01:56:00,
2013-08-06 22:01:00,67.1,59.4,30.09,SSE,157,9.9,9.9,76,-99.99,,,-99.99,tws,2013-08-07 02:01:00,
2013-08-06 22:06:00,67.0,59.2,30.09,SSW,202,8.0,8.0,75,-99.99,,,-99.99,tws,2013-08-07 02:06:00,
2013-08-06 22:11:00,66.7,59.2,30.10,SSE,157,9.6,9.6,76,-99.99,,,-99.99,tws,2013-08-07 02:11:00,
2013-08-06 22:16:00,66.5,59.1,30.10,South,180,7.2,7.2,77,-99.99,,,-99.99,tws,2013-08-07 02:16:00,
2013-08-06 22:21:00,66.5,59.1,30.10,South,180,8.4,8.4,77,-99.99,,,-99.99,tws,2013-08-07 02:21:00,
2013-08-06 22:26:00,66.3,59.0,30.10,SSE,157,8.7,8.7,76,-99.99,,,-99.99,tws,2013-08-07 02:26:00,
2013-08-06 22:31:00,66.2,59.2,30.10,SSE,157,4.7,4.7,77,-99.99,,,-99.99,tws,2013-08-07 02:31:00,
2013-08-06 22:36:00,66.1,59.1,30.10,SSE,157,4.8,4.8,77,-99.99,,,-99.99,tws,2013-08-07 02:36:00,
2013-08-06 22:41:00,66.0,58.9,30.10,SE,135,9.2,9.2,77,-99.99,,,-99.99,tws,2013-08-07 02:41:00,
2013-08-06 22:46:00,66.0,58.9,30.09,SSE,157,6.5,6.5,77,-99.99,,,-99.99,tws,2013-08-07 02:46:00,
2013-08-06 22:51:00,65.4,58.8,30.11,SE,135,7.8,7.8,79,-99.99,,,-99.99,tws,2013-08-07 02:51:00,
2013-08-06 22:56:00,65.0,58.4,30.11,SE,135,9.0,9.0,78,-99.99,,,-99.99,tws,2013-08-07 02:56:00,
2013-08-06 23:01:00,65.2,58.4,30.10,SSE,157,8.9,8.9,78,-99.99,,,-99.99,tws,2013-08-07 03:01:00,
2013-08-06 23:06:00,65.1,58.2,30.10,SSE,157,8.7,8.7,78,-99.99,,,-99.99,tws,2013-08-07 03:06:00,
2013-08-06 23:11:00,65.2,58.3,30.11,SSE,157,5.2,5.2,78,-99.99,,,-99.99,tws,2013-08-07 03:11:00,
2013-08-06 23:16:00,65.0,58.0,30.11,SSE,157,7.9,7.9,77,-99.99,,,-99.99,tws,2013-08-07 03:16:00,
2013-08-06 23:21:00,65.1,58.2,30.11,SSE,157,5.0,5.0,78,-99.99,,,-99.99,tws,2013-08-07 03:21:00,
2013-08-06 23:26:00,65.1,58.2,30.11,South,180,2.9,2.9,78,-99.99,,,-99.99,tws,2013-08-07 03:26:00,
2013-08-06 23:31:00,64.8,58.3,30.11,South,180,5.2,5.2,79,-99.99,,,-99.99,tws,2013-08-07 03:31:00,
2013-08-06 23:36:00,64.3,57.2,30.11,South,180,3.6,3.6,77,-99.99,,,-99.99,tws,2013-08-07 03:36:00,
2013-08-06 23:41:00,64.7,58.1,30.11,South,180,2.1,2.1,78,-99.99,,,-99.99,tws,2013-08-07 03:41:00,
2013-08-06 23:46:00,64.7,58.0,30.11,South,180,3.1,3.1,78,-99.99,,,-99.99,tws,2013-08-07 03:46:00,
2013-08-06 23:51:00,64.7,58.0,30.11,SSW,202,0.0,0.0,78,-99.99,,,-99.99,tws,2013-08-07 03:51:00,
2013-08-06 23:56:00,62.8,57.5,30.12,West,270,0.0,0.0,82,-99.99,,,-99.99,tws,2013-08-07 03:56:00,